Probability
45 48 52 68 65 71 52 45 35 35 26 23 32 35 32 35 29 26 32 48 45 45 52 55 58 55 52 52 42 45 42 39 39 55 52 52 45 42 35 39 35 32 29
58 55 58 58 65 61 61 52 48 48 32 29 35 35 39 35 45 35 39 42 55 55 58 58 55 55 55 52 48 55 48 45 48 55 48 45 45 42 29 32 32 32 29
52 45 52 52 55 52 58 52 48 52 52 35 39 39 45 45 48 52 42 45 45 48 58 58 61 61 52 48 52 52 48 52 52 48 45 42 48 45 35 35 29 32 32
35 42 42 42 55 48 45 48 52 48 48 52 55 55 48 61 55 61 52 52 48 45 39 58 58 52 48 52 52 52 48 48 52 45 42 42 42 39 26 29 29 32 26
42 42 45 42 42 39 42 42 48 52 58 58 52 55 48 52 48 45 52 52 58 52 52 52 45 52 35 45 52 52 52 52 48 45 48 45 42 35 29 29 29 35 32
39 48 48 58 45 39 48 48 58 55 58 61 32 29 42 48 55 58 52 48 48 32 39 42 45 45 39 48 55 48 48 48 52 55 55 48 42 42 26 29 23 23 26
52 58 52 61 55 42 45 45 52 45 45 52 52 39 35 39 48 61 52 48 42 42 42 42 45 45 42 29 35 42 45 48 48 45 52 45 42 39 39 29 23 23 23
48 45 58 55 58 65 61 58 61 45 35 39 45 45 32 32 45 16 39 35 39 39 32 32 32 42 48 45 29 29 35 35 39 42 39 42 45 42 39 35 35 29 29
39 45 48 52 58 61 55 58 58 61 55 52 35 42 35 32 29 19 29 29 42 42 32 35 35 35 39 35 42 23 19 23 32 35 35 35 39 32 39 29 29 29 32
39 42 45 52 58 48 52 42 42 48 55 52 45 48 48 42 42 23 32 29 32 39 39 29 29 35 35 39 42 19 23 13 16 23 35 35 35 35 32 32 26 26 26
42 39 42 42 48 45 52 55 58 52 48 48 42 39 42 52 35 35 26 35 23 23 29 29 35 39 35 39 42 32 10 0 6 13 16 26 32 32 32 32 32 29 26
45 42 39 39 39 45 48 52 48 42 39 42 42 39 42 45 45 35 32 32 32 29 26 29 29 32 42 45 32 10 6 3 0 0 6 10 23 32 35 35 35 35 26
39 45 39 42 39 45 42 48 48 45 39 35 39 39 35 32 26 32 35 32 32 29 29 29 23 29 26 32 35 10 10 6 0 0 0 0 6 10 19 29 32 32 32
39 42 42 42 39 35 29 48 35 35 39 35 32 42 39 29 29 29 32 29 35 26 19 19 26 19 23 23 19 6 13 10 6 3 0 0 0 0 0 0 19 26 23
32 35 39 39 39 35 39 42 35 39 42 39 29 29 29 23 32 32 29 26 26 23 23 23 19 23 19 29 16 23 29 6 6 3 3 0 0 0 0 0 0 0 3
35 29 32 32 32 32 29 35 23 32 35 32 35 29 35 23 29 29 32 32 29 29 29 16 26 23 23 13 10 26 26 6 6 6 0 0 0 0 0 0 0 0 0
35 35 35 29 29 29 32 29 19 23 32 26 23 19 26 26 23 26 32 32 26 29 29 23 16 19 29 29 19 26 26 23 10 6 3 3 0 0 0 0 0 0 0
39 35 29 29 23 19 26 29 23 23 23 19 19 23 16 23 23 26 29 23 23 26 23 23 19 19 35 29 26 32 19 16 19 6 6 3 0 0 0 0 0 0 0
35 26 29 26 29 23 26 23 26 23 19 19 16 16 23 26 26 26 26 23 23 19 26 26 16 26 16 13 23 23 13 19 10 6 6 0 0 0 0 0 0 0 0
29 26 26 23 23 23 23 19 16 19 13 13 13 16 16 16 19 23 23 26 23 23 26 23 10 13 13 13 16 16 13 16 10 6 6 6 6 0 0 0 0 0 0
29 26 26 26 23 19 19 19 13 10 13 13 13 10 10 10 10 10 6 19 23 19 19 13 16 16 13 16 13 13 10 10 10 10 16 16 6 6 6 3 0 0 0
23 26 26 23 23 16 3 3 3 10 13 13 13 13 10 10 6 0 0 0 3 16 19 16 16 16 16 13 16 10 13 10 10 13 16 16 19 19 19 13 6 0 0
23 23 23 26 23 23 3 0 3 3 10 16 13 13 6 6 6 10 0 0 0 0 0 16 10 13 13 13 13 13 16 16 16 16 13 13 13 6 10 3 3 0 0
23 23 23 19 19 23 6 0 0 3 10 16 13 13 13 10 10 10 10 10 10 10 3 0 13 16 13 16 16 16 16 19 23 19 19 10 6 10 10 10 3 0 0
23 23 23 19 19 19 6 0 0 6 13 13 13 13 13 13 10 0 10 10 10 10 3 0 0 3 0 0 3 10 13 16 16 19 19 13 6 6 10 10 6 0 0
23 23 23 19 19 19 10 3 0 6 10 13 13 13 6 6 3 0 6 10 10 10 10 6 3 3 3 3 0 6 13 13 16 10 23 16 6 6 6 10 6 6 3
Height
5893 5892 5891 5891 5890 5889 5889 5888 5887 5887 5886 5885 5885 5884 5883 5883 5882 5881 5881 5881 5881 5880 5880 5879 5879 5878 5878 5877 5877 5877 5877 5877 5877 5878 5878 5878 5878 5878 5879 5879 5878 5879 5879
5892 5891 5891 5890 5889 5889 5888 5887 5886 5886 5885 5884 5883 5883 5882 5881 5880 5880 5879 5879 5879 5878 5878 5877 5877 5877 5876 5876 5875 5875 5875 5875 5875 5875 5875 5876 5876 5876 5876 5876 5876 5876 5876
5891 5890 5890 5889 5888 5887 5886 5886 5885 5884 5883 5882 5882 5881 5880 5880 5879 5878 5877 5877 5876 5876 5875 5875 5875 5874 5874 5873 5873 5873 5872 5872 5872 5873 5873 5873 5873 5873 5874 5873 5874 5874 5874
5890 5889 5888 5888 5887 5886 5885 5884 5883 5882 5881 5880 5880 5879 5878 5878 5877 5876 5875 5874 5874 5873 5873 5872 5872 5871 5871 5870 5870 5870 5870 5870 5870 5870 5870 5870 5870 5870 5870 5871 5871 5871 5872
5889 5888 5887 5886 5885 5884 5883 5882 5880 5880 5879 5878 5877 5877 5876 5875 5874 5873 5873 5872 5871 5870 5870 5869 5868 5868 5867 5867 5867 5867 5867 5867 5866 5866 5866 5867 5867 5867 5867 5868 5868 5869 5869
5887 5886 5885 5884 5883 5882 5881 5879 5878 5877 5876 5876 5875 5874 5873 5872 5871 5870 5869 5869 5868 5867 5866 5865 5865 5864 5864 5864 5863 5863 5863 5863 5863 5863 5863 5863 5863 5864 5864 5864 5865 5865 5866
5885 5884 5883 5882 5881 5880 5878 5877 5876 5875 5874 5873 5872 5871 5870 5869 5868 5867 5866 5866 5865 5864 5863 5862 5862 5861 5860 5860 5859 5859 5859 5859 5859 5859 5859 5859 5859 5860 5860 5861 5861 5862 5862
5883 5882 5881 5880 5879 5877 5876 5875 5874 5872 5871 5870 5869 5868 5867 5866 5865 5864 5863 5862 5862 5861 5860 5859 5858 5857 5856 5856 5855 5855 5855 5855 5855 5855 5855 5855 5855 5856 5856 5856 5857 5858 5858
5881 5880 5878 5877 5876 5875 5873 5872 5871 5870 5868 5867 5866 5865 5863 5862 5861 5861 5860 5859 5858 5857 5856 5855 5854 5853 5852 5852 5851 5851 5851 5851 5851 5851 5851 5851 5851 5851 5852 5852 5852 5853 5854
5879 5877 5876 5874 5873 5871 5870 5869 5867 5866 5865 5863 5862 5861 5860 5859 5857 5857 5856 5855 5853 5853 5852 5851 5850 5849 5848 5847 5847 5847 5846 5846 5846 5846 5846 5847 5847 5847 5847 5847 5848 5848 5849
5875 5874 5873 5871 5870 5868 5867 5865 5864 5862 5861 5859 5858 5857 5855 5854 5853 5852 5852 5851 5850 5848 5847 5846 5845 5844 5843 5843 5842 5842 5841 5841 5841 5841 5841 5841 5842 5842 5842 5842 5843 5843 5844
5872 5871 5869 5868 5866 5865 5863 5862 5860 5858 5857 5855 5854 5852 5851 5850 5849 5848 5847 5846 5845 5844 5842 5841 5841 5840 5839 5838 5837 5837 5836 5836 5836 5836 5836 5836 5837 5837 5837 5837 5838 5838 5839
5870 5868 5866 5864 5863 5861 5860 5858 5856 5854 5852 5851 5849 5848 5846 5845 5843 5843 5842 5841 5840 5839 5838 5837 5836 5835 5834 5833 5832 5832 5831 5831 5831 5831 5831 5831 5831 5831 5831 5831 5832 5833 5833
5866 5864 5862 5861 5859 5857 5855 5853 5851 5849 5848 5846 5844 5843 5841 5840 5839 5837 5836 5836 5835 5834 5833 5832 5831 5829 5828 5827 5826 5826 5825 5825 5825 5825 5825 5825 5825 5825 5825 5826 5826 5827 5827
5862 5860 5858 5856 5854 5853 5851 5849 5847 5845 5843 5841 5839 5838 5836 5835 5834 5832 5831 5830 5829 5828 5827 5826 5825 5823 5822 5821 5820 5820 5820 5819 5819 5819 5819 5819 5819 5819 5819 5819 5820 5820 5821
5857 5855 5853 5851 5850 5848 5846 5844 5842 5839 5837 5835 5834 5832 5831 5829 5828 5827 5826 5824 5823 5822 5821 5820 5819 5817 5816 5815 5814 5814 5813 5813 5812 5812 5812 5812 5812 5812 5812 5812 5813 5813 5814
5852 5850 5848 5846 5844 5842 5840 5838 5836 5834 5832 5830 5828 5827 5825 5823 5822 5821 5820 5818 5817 5816 5814 5814 5813 5811 5810 5809 5808 5807 5807 5806 5805 5805 5805 5804 5805 5805 5805 5805 5805 5805 5806
5847 5845 5843 5841 5839 5836 5834 5832 5830 5828 5826 5824 5822 5821 5819 5817 5816 5814 5813 5811 5810 5809 5807 5806 5805 5804 5803 5802 5801 5800 5799 5799 5798 5797 5797 5797 5797 5797 5797 5797 5798 5798 5798
5842 5839 5837 5835 5833 5831 5828 5826 5824 5821 5820 5818 5816 5814 5812 5811 5809 5807 5806 5804 5803 5801 5800 5799 5798 5797 5796 5795 5794 5793 5792 5791 5790 5790 5789 5789 5789 5789 5789 5790 5790 5790 5791
5836 5833 5831 5829 5826 5824 5822 5820 5818 5816 5814 5812 5810 5808 5806 5804 5802 5800 5798 5796 5795 5793 5792 5791 5789 5788 5787 5786 5785 5785 5784 5783 5782 5782 5781 5781 5781 5781 5781 5781 5782 5782 5782
5830 5828 5825 5823 5820 5818 5816 5814 5812 5809 5807 5805 5803 5801 5799 5797 5795 5792 5790 5788 5787 5785 5784 5782 5781 5780 5779 5778 5777 5776 5775 5775 5774 5773 5773 5773 5773 5773 5773 5773 5773 5774 5774
5824 5822 5819 5816 5814 5812 5809 5807 5805 5803 5800 5798 5796 5794 5791 5789 5787 5785 5783 5781 5779 5777 5776 5774 5773 5771 5770 5769 5768 5767 5767 5766 5766 5765 5765 5764 5764 5764 5764 5765 5765 5765 5765
5818 5815 5813 5810 5808 5805 5803 5800 5798 5795 5793 5791 5789 5786 5784 5782 5779 5777 5775 5773 5771 5769 5768 5766 5764 5763 5761 5761 5760 5759 5758 5757 5757 5756 5756 5756 5756 5755 5755 5755 5755 5755 5755
5812 5809 5806 5803 5801 5798 5796 5793 5790 5788 5785 5783 5781 5778 5776 5774 5771 5769 5767 5765 5763 5761 5759 5757 5756 5754 5753 5752 5751 5750 5749 5749 5748 5747 5747 5747 5747 5746 5746 5746 5746 5746 5746
5805 5802 5799 5796 5794 5791 5788 5786 5783 5780 5778 5775 5773 5770 5768 5766 5763 5761 5758 5756 5754 5752 5750 5748 5747 5745 5744 5743 5742 5741 5740 5739 5739 5738 5738 5737 5737 5737 5736 5736 5736 5736 5736
5797 5794 5791 5789 5786 5784 5781 5778 5775 5772 5770 5768 5765 5763 5760 5758 5755 5753 5750 5748 5745 5743 5741 5739 5738 5737 5735 5734 5733 5732 5731 5730 5729 5729 5728 5727 5727 5727 5727 5726 5726 5726 5725
Wind_Speed
2 2 2 2 3 3 3 4 4 4 4 5 5 4 5 6 6 6 6 7 7 7 7 7 7 8 8 8 8 9 10 10 11 10 10 11 10 10 9 9 8 9 9
3 3 3 3 4 4 4 5 5 6 6 6 5 6 6 7 7 8 8 8 8 9 9 9 8 8 8 9 9 9 10 10 11 11 11 11 11 10 10 10 10 9 10
4 5 5 5 5 5 6 6 7 7 7 7 7 7 7 7 8 8 9 9 10 10 10 10 10 10 10 10 9 10 10 10 11 11 12 12 12 12 11 11 10 10 11
4 5 6 7 7 7 7 8 9 8 8 8 8 8 8 9 9 9 10 10 11 11 11 11 11 11 11 11 11 11 11 11 11 12 12 13 13 13 12 12 12 11 11
6 6 7 7 8 8 8 9 10 9 9 9 10 10 10 10 10 11 11 11 12 12 12 12 12 12 12 12 12 12 12 12 12 12 13 13 13 13 13 13 13 13 12
7 8 9 9 9 9 9 8 9 9 9 10 11 11 11 11 11 12 12 12 12 12 12 13 13 13 13 13 13 14 13 13 14 13 13 13 13 14 14 14 14 14 14
9 9 10 10 10 10 10 10 10 10 11 12 11 12 12 12 12 13 13 14 13 13 14 14 15 14 14 14 14 14 14 13 14 13 13 13 14 15 15 16 15 15 14
10 11 11 11 11 11 11 12 12 12 12 12 12 12 12 13 13 14 14 15 15 15 15 15 14 14 14 14 14 14 15 15 15 15 14 14 15 16 16 16 17 17 16
11 12 12 12 12 12 12 13 13 12 13 13 14 14 14 14 15 15 15 16 16 16 16 16 16 16 16 16 15 16 16 16 16 16 16 16 16 16 17 17 17 17 18
13 13 12 12 12 13 14 14 14 14 15 15 15 15 15 15 16 15 15 16 16 16 16 16 16 17 17 17 17 17 18 17 17 17 17 17 17 17 17 18 18 18 18
13 13 13 13 14 14 15 15 15 15 15 15 16 17 17 17 17 17 17 17 17 16 16 15 16 17 17 17 18 17 17 18 18 18 18 19 19 18 18 19 19 19 20
13 13 14 14 15 16 16 16 16 16 16 17 17 18 19 19 19 18 18 18 18 17 16 16 16 17 18 18 19 18 18 19 19 19 19 19 20 20 19 20 20 20 20
14 14 15 16 16 16 17 17 17 17 17 18 19 19 19 19 20 20 19 19 18 18 19 18 18 19 19 20 20 19 19 19 20 20 21 21 21 21 21 21 21 21 21
15 15 16 17 17 17 18 18 18 18 18 19 19 20 20 20 20 20 20 20 19 20 20 20 20 20 21 21 21 21 20 20 21 22 22 22 22 22 22 23 23 23 23
17 18 18 18 18 18 19 19 19 20 20 20 20 21 21 20 20 21 20 20 21 21 22 21 22 22 22 22 22 22 23 23 22 23 24 24 24 24 24 25 25 24 24
19 19 19 20 20 20 20 20 21 21 22 22 22 21 21 21 21 21 21 22 23 23 23 23 23 23 23 23 23 23 24 25 25 24 25 25 25 26 26 26 26 25 25
20 20 20 21 21 21 21 21 21 22 22 23 23 22 22 22 22 22 23 24 24 24 24 24 24 24 24 24 24 25 25 25 25 25 25 26 26 26 26 26 26 27 27
21 22 22 22 22 22 23 22 23 22 23 23 23 23 23 23 24 24 25 25 25 25 25 25 26 26 26 26 26 26 26 27 26 26 26 26 26 27 27 27 27 27 27
22 22 22 22 23 23 23 23 23 23 23 23 23 23 24 25 26 26 26 26 26 26 26 27 27 27 27 27 27 27 27 27 27 27 27 27 27 27 27 27 27 27 28
22 22 23 23 24 24 24 24 24 23 23 23 23 24 24 25 26 27 27 27 27 27 28 28 28 28 28 28 28 28 27 27 28 28 28 28 28 27 27 27 28 28 28
23 22 23 24 24 24 24 24 24 24 24 24 24 24 25 25 26 26 26 26 27 27 28 29 29 29 29 29 28 28 28 28 28 28 28 28 28 29 29 29 29 29 30
23 23 24 24 25 24 25 25 24 25 25 25 25 25 25 26 26 26 27 27 27 27 28 29 29 29 29 29 29 29 29 29 29 28 28 28 29 29 30 30 30 30 30
24 26 26 26 26 26 26 25 25 25 26 26 26 26 26 26 27 27 28 27 28 28 29 29 28 28 29 29 29 29 28 29 29 28 29 29 29 30 31 31 31 31 31
27 27 26 26 26 26 26 26 26 26 27 28 28 28 28 28 28 28 29 29 29 29 29 29 28 28 29 28 28 29 29 30 30 30 30 30 30 31 31 32 32 32 32
28 27 26 27 27 27 26 27 27 27 27 28 28 28 29 29 29 29 29 29 29 29 29 28 28 28 28 29 29 30 30 30 30 30 31 31 31 31 31 31 32 32 33
29 28 28 27 26 26 26 27 27 27 27 27 28 28 28 28 29 29 29 29 28 29 29 29 29 29 30 30 30 30 30 30 31 31 31 31 31 31 30 30 31 31 32
Wind_Direction
322 336 340 329 328 317 312 312 310 306 296 290 289 296 296 290 291 293 290 285 282 277 274 275 274 275 270 264 264 257 255 256 256 254 253 253 256 258 259 260 265 261 255
319 315 312 318 315 308 305 304 302 301 294 292 295 295 293 291 292 292 291 287 283 281 277 275 273 273 271 267 270 261 258 257 255 254 255 258 259 256 260 261 261 260 257
312 307 302 307 305 301 299 296 293 295 298 294 295 292 290 292 294 290 287 284 283 282 277 275 275 275 274 271 269 264 262 260 258 257 258 259 259 258 259 258 255 257 257
306 303 302 305 302 296 291 290 288 288 290 296 292 291 288 289 292 288 285 285 285 284 279 276 277 277 276 274 272 270 267 264 262 261 262 260 259 257 258 256 256 258 258
311 311 309 310 305 301 294 293 289 287 289 292 290 288 287 285 285 284 284 285 285 283 280 278 276 275 275 274 273 271 269 265 263 263 264 262 261 257 257 259 259 259 260
300 304 306 308 310 308 299 298 300 293 293 292 290 287 286 283 282 282 283 284 286 285 283 279 276 274 273 273 272 271 268 266 263 263 265 264 261 259 259 261 260 259 260
296 303 305 304 308 306 301 299 301 298 300 298 291 288 288 282 281 281 283 283 284 285 284 283 280 276 274 275 273 271 268 267 263 266 269 265 262 260 259 257 256 258 260
301 305 305 304 301 301 300 300 301 299 300 300 298 293 288 283 281 284 286 285 283 282 283 284 281 278 278 278 277 276 273 270 266 267 268 267 264 260 259 259 259 258 259
301 301 302 300 300 301 302 300 299 298 300 301 299 296 294 291 286 285 287 286 283 283 284 284 281 279 278 280 279 277 275 273 270 268 266 268 268 267 263 261 260 260 259
305 302 300 300 298 297 299 298 296 300 298 297 297 297 295 292 292 291 289 288 286 287 289 286 282 281 278 277 280 279 273 271 270 267 264 264 265 266 265 262 261 261 258
307 302 301 302 301 299 299 299 296 296 296 297 297 297 295 293 292 292 289 288 288 288 289 285 284 283 280 279 280 280 273 268 268 266 265 263 262 264 264 263 261 261 260
308 306 304 304 302 300 300 298 296 295 294 295 296 296 294 292 290 289 287 287 287 287 289 286 285 284 281 279 279 279 275 270 267 266 266 266 264 263 263 263 261 260 260
307 307 306 304 304 303 301 298 295 294 295 294 294 295 295 292 288 286 284 285 286 286 286 287 285 285 282 278 276 277 277 274 269 267 266 267 267 265 265 263 262 261 261
305 306 306 304 302 303 302 300 299 296 294 294 292 291 291 288 288 287 284 283 285 284 285 286 285 283 282 280 276 276 278 275 269 267 266 266 267 266 265 263 263 262 263
302 301 303 303 303 301 299 298 296 295 294 293 292 290 288 285 287 287 286 285 286 286 286 286 286 285 283 282 278 274 276 276 272 267 265 266 266 266 266 264 263 263 264
302 300 299 300 299 298 298 295 294 294 293 292 291 291 288 285 286 287 287 287 287 286 286 285 285 285 284 282 280 277 277 277 276 272 268 266 266 265 265 264 264 265 265
300 299 298 298 298 297 296 294 293 292 291 290 290 291 289 287 286 285 286 286 285 284 284 284 282 281 282 283 282 280 278 278 277 275 272 269 267 267 266 265 266 267 266
298 297 296 296 297 297 297 295 292 291 289 289 289 289 288 288 287 286 286 285 285 284 282 282 281 281 281 282 282 280 278 277 276 274 272 270 268 267 266 266 266 265 264
296 295 294 294 294 294 295 295 295 292 290 288 287 288 289 289 288 287 285 284 283 283 282 282 281 280 279 280 280 279 277 275 275 274 273 271 270 268 266 266 266 266 265
295 293 293 293 292 292 294 294 294 293 291 290 289 290 291 291 291 289 287 286 284 283 283 283 282 280 280 279 279 278 277 276 276 274 273 272 271 270 268 268 268 268 267
294 293 293 294 294 294 293 292 291 291 291 292 292 292 291 292 292 291 290 288 286 284 284 284 282 281 280 280 279 277 276 276 276 274 272 272 270 269 268 268 267 268 267
296 295 295 295 294 294 294 293 291 290 291 291 292 293 293 292 292 291 290 290 287 285 284 283 282 280 280 280 279 277 276 275 275 273 272 272 271 269 269 269 269 269 269
299 299 297 294 293 293 293 292 291 290 290 291 291 292 293 293 292 291 289 288 288 287 285 283 282 281 280 279 279 277 275 274 273 273 272 271 271 270 268 268 268 268 269
299 299 298 295 293 293 292 291 291 290 289 290 290 291 292 292 291 290 290 289 286 286 285 284 283 282 281 280 279 278 276 275 273 273 272 271 270 269 269 268 268 267 267
299 299 297 297 296 294 293 292 291 290 290 290 291 292 292 292 291 291 290 290 288 286 285 284 284 284 283 283 281 279 278 276 275 274 272 271 270 270 270 271 269 267 266
298 299 298 297 296 297 295 294 292 291 291 292 293 292 292 292 294 293 292 291 291 290 288 285 285 284 283 283 282 281 278 276 275 274 273 272 271 271 271 272 270 268 266